Volver al catálogo

ARIANE 5 R/B

ActivoHEO
NORAD 45029·ROCKET BODY·🇫🇷 France

Lanzado Jan 16, 2020 desde Guiana Space Centre

Loading…

Próximos Pases (próximas 24 horas)

TLE

ActualizadoSource: Space-Track

Época: Sep 14, 2026, 14:28 UTC

1 45029U 20005D   26257.60331249  .00010622  00000-0  65330-3 0  9998
2 45029   5.8454  35.0735 6411814 224.8371  60.8359  3.48699367 54020

Sigue ARIANE 5 R/B en tiempo real con AllMySat

Download on the App Store